Regional Weather Roundup
Issued by NWS

Home | Current Version | Previous Version | Text Only | Print | Product List | Glossary Off
Versions: 1 2 3 4 5 6 7 8 9 10 11 12 13 14 15 16 17 18 19 20 21 22 23 24 25 26 27 28 29 30 31 32 33 34 35 36 37 38 39 40 41 42 43 44 45 46 47 48 49 50

000
ASUS43 KMPX 230901
RWRMN
WEATHER ROUNDUP FOR MINNESOTA
NATIONAL WEATHER SERVICE TWIN CITIES/CHANHASSEN MN
400 AM CDT SAT SEP 23 2017


NOTE: "FAIR" INDICATES FEW OR NO CLOUDS BELOW 12,000 FEET WITH NO
SIGNIFICANT WEATHER AND/OR OBSTRUCTIONS TO VISIBILITY. N/A MEANS
CURRENT SKY AND/OR WEATHER CONDITIONS ARE NOT AVAILABLE.

MNZ060>063-068>070-231000-
   Twin Cities Metro

CITY           SKY/WX    TMP DP  RH WIND       PRES   REMARKS
TWIN CITIES    CLOUDY    80  69  69 S12G20    29.87R
ST PAUL        CLOUDY    75  69  81 E14       29.88R
CRYSTAL        MOCLDY    80  65  59 S14       29.84S
BLAINE         MOCLDY    81  66  61 S13       29.86S
LAKEVILLE      CLOUDY    75  66  73 S7        29.88R
EDEN PRAIRIE   CLOUDY    79  68  69 SW13G24   29.85S
SOUTH ST PAUL  CLEAR     75  66  73 S6        29.88R
LAKE ELMO      FAIR      73  68  83 S8        29.90R
$$
MNZ001>005-007-008-013>017-022>024-027-028-231000-
   Northwest Minnesota

CITY           SKY/WX    TMP DP  RH WIND       PRES   REMARKS
BEMIDJI        CLOUDY    60  58  95 SW12      29.86R
HALLOCK          N/A     50  48  93 NW17      29.90S FOG
ROSEAU         CLOUDY    54  48  82 NW12      29.82R HAZE
WARROAD        CLOUDY    54  52  94 W9        29.82R FOG
CROOKSTON      CLOUDY    52  50  93 NW17G26   29.91R FOG
FOSSTON        CLOUDY    54  52  94 W10       29.90R
DETROIT LAKES  CLOUDY    54  52  94 NW7       29.90S
MOORHEAD       CLOUDY    54  52  94 NW10G16   29.92R
PARK RAPIDS    LGT RAIN  60  58  92 W13       29.88R
MAHNOMEN       CLOUDY    54  52  93 W12       29.90R
$$
MNZ006-009>011-018-025>026-231000-
   North Central Minnesota

CITY           SKY/WX    TMP DP  RH WIND       PRES   REMARKS
BAUDETTE       CLOUDY    59  59 100 NW14      29.78R
FLAG ISLAND    CLOUDY    55  54  94 NW13      29.77R
INTL FALLS     MOCLDY    67  65  93 CALM      29.74S
WASKISH        CLOUDY    63  63 100 SW9G17    29.80R FOG
BIG FORK       CLOUDY    73  63  68 SW8       29.81R
LONGVILLE      TSTM      68  64  88 SW7       29.86R
CRANE LAKE     PTCLDY    64  64 100 CALM      29.78F FOG
ORR            CLOUDY    72  64  78 S3        29.76R
COOK           CLOUDY    73  66  78 S5        29.82R
WALKER         FAIR      64  61  88 SW6       29.84R
$$
MNZ012-019>021-037-231000-
   Northeast Minnesota

CITY           SKY/WX    TMP DP  RH WIND       PRES   REMARKS
DULUTH         CLOUDY    74  69  85 SW12      29.86R
ELY            CLOUDY    72  66  83 S3        29.82F
HIBBING        CLOUDY    72  66  81 SW6       29.86R
EVELETH        CLOUDY    73  66  80 SW6       29.85R
DULUTH HARBOR  CLOUDY    64  63  94 N3        29.85R
SILVER BAY     CLOUDY    63  63 100 CALM      29.82F
GRAND MARAIS     N/A     62  62 100 CALM      29.82S
G MARAIS ARPRT PTCLDY    66  63  88 SW5       29.88F
$$
MNZ029>031-032-039>041-046>048-054>057-064-231000-
   West Central Minnesota

CITY           SKY/WX    TMP DP  RH WIND       PRES   REMARKS
FERGUS FALLS   CLOUDY    55  55 100 N9        29.90R
WHEATON        CLOUDY    55  54  94 NW6       29.91S
MORRIS         TSTM      57  55  94 N12       29.86R
ELBOW LAKE     LGT RAIN  56  56  98 NW10      29.88F
WADENA         RAIN      61  61 100 NW10      29.84S
GLENWOOD       MOCLDY    63  61  94 W13       29.88R
APPLETON       CLOUDY    61  55  82 N7        29.86F
BENSON         CLOUDY    63  59  88 NE5       29.87R
ORTONVILLE     CLOUDY    55  54  94 NW12G18   29.88R
MADISON        MOCLDY    61  61 100 NW10      29.88R
WILLMAR        FAIR      70  68  94 NW6       29.87R
$$
MNZ033>034-036-042>043-049>051-058-059-231000-
   Central Minnesota

CITY           SKY/WX    TMP DP  RH WIND       PRES   REMARKS
ST CLOUD       CLOUDY    72  69  90 S6        29.86R
SAUK CENTRE    FAIR      67  64  93 NW5       29.87R
PAYNESVILLE    CLOUDY    74  68  82 S7        29.86R
AITKIN         CLOUDY    70  64  83 SW8       29.89R THUNDER
PINE RIVER     TSTM      66  61  82 SW6       29.89R
BRAINERD       TSTM      69  65  86 W5        29.87R
STAPLES        CLOUDY    66  64  94 W6        29.88R
LITTLE FALLS   CLOUDY    68  63  83 CALM      29.86S
LITCHFIELD     CLOUDY    73  70  88 CALM      29.86R
BUFFALO        MOCLDY    76  66  71 S7        29.87R
MAPLE LAKE     MOCLDY    76  69  80 S3        29.87R
HUTCHINSON     CLOUDY    74  70  86 CALM      29.88R
$$
MNZ037-044-045-052-053-231000-
   East Central Minnesota

CITY           SKY/WX    TMP DP  RH WIND       PRES   REMARKS
PRINCETON      CLOUDY    75  68  78 S3        29.87R
MORA           PTCLDY    70  64  83 S3        29.89R
CAMBRIDGE      PTCLDY    79  64  61 S6        29.85S
RUSH CITY      CLOUDY    73  67  80 S5        29.87R
MOOSE LAKE     MOCLDY    73  68  83 CALM      29.86R
HINCKLEY       FAIR      73  70  88 CALM      29.87R
CLOQUET        MOCLDY    75  66  73 S9        29.87R THUNDER
MCGREGOR       CLOUDY    73  64  73 W8G16     29.89R THUNDER
$$
MNZ071>073-080-081-089-090-097-098-231000-
   Southwest Minnesota

CITY           SKY/WX    TMP DP  RH WIND       PRES   REMARKS
MONTEVIDEO     MOCLDY    64  63  94 N5        29.86R
GRANITE FALLS  CLOUDY    68  65  89 N6        29.87S
CANBY          CLOUDY    62  59  91 N9        29.88R
MARSHALL       PTCLDY    64  61  90 NW5       29.87R
REDWOOD FALLS  CLOUDY    75  67  76 W3        29.85R
OLIVIA         CLEAR     70  66  88 CALM      29.86R
PIPESTONE      PTCLDY    64  63  94 CALM      29.87S
WORTHINGTON    CLEAR     73  67  81 S13G21    29.89S
JACKSON        CLEAR     72  66  83 S10       29.90F
TRACY          CLEAR     72  68  87 N7        29.87R
SLAYTON        CLEAR     73  62  69 S13       29.87F
$$
MNZ065>067-074>077-082>085-091>093-231000-
   South Central Minnesota

CITY           SKY/WX    TMP DP  RH WIND       PRES   REMARKS
MANKATO        CLEAR     74  32  21 S9        29.89R
NEW ULM        CLOUDY    73  66  78 S10       29.86R
ST JAMES       CLEAR     73  66  78 S10G16    29.88S
FAIRMONT       CLEAR     73  68  84 S10       29.90S
FARIBAULT      PTCLDY    73  66  78 S7        29.91R
OWATONNA       CLEAR     73  66  78 S9        29.92R
WASECA         CLEAR     72  64  78 S8        29.92R
ALBERT LEA     CLEAR     75  68  78 S7        29.93R
$$
MNZ078>079-086>088-094>096-231000-
   Southeast Minnesota

CITY           SKY/WX    TMP DP  RH WIND       PRES   REMARKS
ROCHESTER      CLEAR     72  66  81 S9        29.95R
RED WING       CLEAR     75  64  69 CALM      29.90S
STANTON        PTCLDY    74  67  78 S6        29.89R
DODGE CENTER   CLEAR     72  64  78 S10       29.94R
WINONA         CLEAR     73  64  73 CALM      29.94R
AUSTIN         CLEAR     70  64  83 S6        29.95R
PRESTON        CLEAR     71  64  80 SW9       29.96R
$$
ABBREVIATIONS USED IN REMARKS
   TC - TEMPERATURES IN CELSIUS
  WCI - WIND CHILL INDEX
   HX - HEAT INDEX
  VSB - VISIBILITY
$$




USA.gov is the U.S. government's official web portal to all federal, state and local government web resources and services.